Location: Demmingen
(48.6757°N, 10.4375°E)
Time: 02:28:19
(UTC+00:00)

MSX - Pass Details

Date: 23 May 2024
Orbit: 893 x 906 km, 99.0° (Epoch: 19 June)

Event Time Altitude Azimuth Distance (km) Brightness Sun altitude
Rises 02:02:53 0° 10° (N) 3,526 8.1 -11.2°
Reaches altitude 10° 02:05:22 10° 5° (N) 2,580 7.1 -11.0°
Maximum altitude 02:10:49 47° 294° (WNW) 1,174 4.3 -10.4°
Enters shadow 02:15:47 12° 224° (SW) 2,389 5.4 -9.8°
